Home   Weather   Rheine   Past weeks

Flag for Germany Past Weather in Rheine, North Rhine-Westphalia, Germany — Yesterday and Last 2 Weeks

Now
55 °F

Passing clouds.


Feels Like: 55 °F
Forecast: 45 / 69 °F
Wind: 5 mph from West

Location: Rheine-Bentlage

Current Time: Sep 26, 2016 at 7:23:50 AM

Latest Report: Sep 26, 2016 at 6:20 AM


Visibility: N/A

Pressure: 30.18 "Hg

Humidity: 88%

Dew Point: 52 °F

Location of RheineLocation

Past Weather in Rheine — Graph

°F

Rheine Temperature Yesterday

Maximum temperature yesterday: 79 °F (at 3:20 PM)
Minimum temperature yesterday: 50 °F (at 7:20 AM)
Average temperature yesterday: 63 °F

High & Low Weather Summary for the Past Weeks

 TemperatureHumidityPressure
High90 °F (Sep 13, 3:20 PM)100% (Sep 12, 3:20 AM)30.30 "Hg (Sep 12, 3:20 AM)
Low45 °F (Sep 21, 6:20 AM)35% (Sep 14, 4:20 PM)29.83 "Hg (Sep 15, 3:20 PM)
Average63 °F73%30.05 "Hg
* Reported Sep 11 5:20 AM — Sep 26 5:20 AM, Rheine, Weather by CustomWeather, © 2016

Note: Actual official high and low records may vary slightly from our data, if they occured in-between our weather recording intervals... More about our weather records

Advertising

Rheine Weather History for the Previous 24 Hours

Scroll right to see more
 ConditionsComfort  
Time TempWeatherWind HumidityBarometerVisibility
5:20 AM
Mon, Sep 26
55 °FCool.3 mph94%30.18 "HgN/A
4:20 AM59 °FCool.6 mph88%30.18 "HgN/A
3:20 AM57 °FCool.5 mph94%30.18 "HgN/A
2:20 AM57 °FCool.3 mph88%30.15 "HgN/A
1:20 AM59 °FCool.5 mph82%30.15 "HgN/A
12:20 AM59 °FCool.7 mph77%30.15 "HgN/A
11:20 PM
Sun, Sep 25
59 °FCool.6 mph82%30.12 "HgN/A
10:20 PM61 °FCool.8 mph83%30.12 "HgN/A
9:20 PM64 °FMild.12 mph78%30.09 "HgN/A
8:20 PM68 °FMild.20 mph69%30.07 "HgN/A
7:20 PM66 °FMild.2 mph64%30.01 "HgN/A
6:20 PM75 °FMild.6 mph41%30.01 "HgN/A
5:20 PM77 °FPleasantly warm.8 mph39%29.98 "HgN/A
4:20 PM79 °FPleasantly warm.9 mph37%29.98 "HgN/A
3:20 PM79 °FPleasantly warm.8 mph37%29.98 "HgN/A
2:20 PM75 °FMild.9 mph44%29.98 "HgN/A
1:20 PM73 °FMild.9 mph47%30.01 "HgN/A
12:20 PM72 °FMild.7 mph53%30.01 "HgN/A
11:20 AM64 °FMild.7 mph60%30.04 "HgN/A
10:20 AM61 °FCool.9 mph68%30.04 "HgN/A
9:20 AM57 °FCool.8 mph72%30.04 "HgN/A
8:20 AM52 °FCool.6 mph82%30.07 "HgN/A
7:20 AM50 °FCool.6 mph88%30.07 "HgN/A
Weather by CustomWeather, © 2016

See weather overviewHow to use our weather pages